• In Lithuania
  • List of Countries
  • For 7 days
  • Water Temperature
  • Satellite Maps
  • Weather Map
  • Weather Widgets
  • user-avatar
    Login

    Hourly Weather Berlin

    Today, 24 September, Monday

    Time Temperature Precipitation Wind Pressure Humidity
    00:00 +8°C° 0.1 mm 5 mps 756 mmHg 85%
    01:00 +7°C° 0 mm 5 mps 757 mmHg 86%
    02:00 +7°C° 0 mm 5 mps 758 mmHg 86%
    03:00 +7°C° 0 mm 5 mps 758 mmHg 86%
    04:00 +7°C° 0 mm 6 mps 759 mmHg 86%
    05:00 +7°C° 0 mm 6 mps 760 mmHg 84%
    06:00 +7°C° 0 mm 6 mps 760 mmHg 83%
    07:00 +7°C° 0 mm 6 mps 761 mmHg 83%
    08:00 +8°C° 0 mm 7 mps 761 mmHg 76%
    09:00 +9°C° 0 mm 8 mps 762 mmHg 68%
    10:00 +10°C° 0 mm 8 mps 762 mmHg 61%
    11:00 +11°C° 0.1 mm 8 mps 763 mmHg 56%
    12:00 +12°C° 0.1 mm 8 mps 763 mmHg 51%
    13:00 +13°C° 0.1 mm 8 mps 764 mmHg 46%
    14:00 +12°C° 0.1 mm 8 mps 764 mmHg 47%
    15:00 +12°C° 0.1 mm 7 mps 764 mmHg 48%
    16:00 +12°C° 0.1 mm 7 mps 765 mmHg 49%
    17:00 +11°C° 0.1 mm 6 mps 765 mmHg 53%
    18:00 +9°C° 0.1 mm 5 mps 766 mmHg 58%
    19:00 +8°C° 0.1 mm 4 mps 766 mmHg 62%
    20:00 +8°C° 0 mm 4 mps 767 mmHg 63%
    21:00 +7°C° 0 mm 4 mps 768 mmHg 64%
    22:00 +7°C° 0 mm 5 mps 768 mmHg 65%
    23:00 +7°C° 0 mm 4 mps 769 mmHg 67%

    Tomorrow, 25 September, Tuesday

    Time Temperature Precipitation Wind Pressure Humidity
    00:00 +6°C° 0 mm 4 mps 769 mmHg 69%
    01:00 +6°C° 0 mm 4 mps 770 mmHg 71%
    02:00 +6°C° 0 mm 4 mps 770 mmHg 72%
    03:00 +5°C° 0 mm 4 mps 770 mmHg 74%
    04:00 +5°C° 0 mm 4 mps 771 mmHg 75%
    05:00 +5°C° 0 mm 4 mps 771 mmHg 76%
    06:00 +5°C° 0 mm 4 mps 772 mmHg 76%
    07:00 +5°C° 0 mm 4 mps 772 mmHg 76%
    08:00 +7°C° 0 mm 4 mps 773 mmHg 69%
    09:00 +10°C° 0 mm 4 mps 773 mmHg 61%
    10:00 +12°C° 0 mm 4 mps 773 mmHg 54%
    11:00 +13°C° 0 mm 3 mps 773 mmHg 50%
    12:00 +14°C° 0 mm 3 mps 774 mmHg 45%
    13:00 +14°C° 0 mm 3 mps 774 mmHg 41%
    14:00 +14°C° 0 mm 3 mps 774 mmHg 42%
    15:00 +14°C° 0 mm 3 mps 774 mmHg 42%
    16:00 +15°C° 0 mm 2 mps 773 mmHg 43%
    17:00 +13°C° 0 mm 2 mps 774 mmHg 48%
    18:00 +12°C° 0 mm 2 mps 774 mmHg 53%
    19:00 +10°C° 0 mm 1 mps 774 mmHg 57%
    20:00 +10°C° 0 mm 1 mps 774 mmHg 59%
    21:00 +10°C° 0 mm 1 mps 774 mmHg 60%
    22:00 +9°C° 0 mm 1 mps 774 mmHg 62%
    23:00 +8°C° 0 mm 2 mps 774 mmHg 63%

    Day after tomorrow, 26 September, Wednesday

    Time Temperature Precipitation Wind Pressure Humidity
    00:00 +7°C° 0 mm 2 mps 774 mmHg 64%
    01:00 +7°C° 0 mm 2 mps 774 mmHg 65%
    02:00 +7°C° 0 mm 2 mps 774 mmHg 66%
    03:00 +7°C° 0 mm 2 mps 774 mmHg 66%
    04:00 +7°C° 0 mm 2 mps 773 mmHg 67%
    05:00 +7°C° 0 mm 3 mps 773 mmHg 66%
    06:00 +7°C° 0 mm 3 mps 773 mmHg 66%
    07:00 +7°C° 0 mm 3 mps 773 mmHg 65%
    08:00 +8°C° 0 mm 4 mps 772 mmHg 59%
    09:00 +11°C° 0 mm 4 mps 772 mmHg 52%
    10:00 +13°C° 0 mm 4 mps 772 mmHg 46%
    11:00 +14°C° 0 mm 5 mps 772 mmHg 44%
    12:00 +15°C° 0 mm 5 mps 771 mmHg 41%
    13:00 +16°C° 0 mm 5 mps 770 mmHg 39%
    14:00 +16°C° 0 mm 5 mps 770 mmHg 40%
    15:00 +17°C° 0 mm 5 mps 769 mmHg 41%
    16:00 +17°C° 0 mm 5 mps 769 mmHg 41%
    17:00 +17°C° 0 mm 4 mps 769 mmHg 46%
    18:00 +14°C° 0 mm 4 mps 769 mmHg 50%
    19:00 +13°C° 0 mm 4 mps 769 mmHg 54%
    20:00 +13°C° 0 mm 4 mps 769 mmHg 55%
    21:00 +13°C° 0 mm 4 mps 769 mmHg 55%
    22:00 +13°C° 0 mm 4 mps 769 mmHg 56%
    23:00 +13°C° 0 mm 4 mps 768 mmHg 56%

    27 September, Thursday

    Time Temperature Precipitation Wind Pressure Humidity
    00:00 +13°C° 0 mm 4 mps 768 mmHg 57%
    01:00 +13°C° 0 mm 4 mps 768 mmHg 58%
    02:00 +12°C° 0 mm 4 mps 768 mmHg 60%
    03:00 +12°C° 0 mm 4 mps 768 mmHg 61%
    04:00 +12°C° 0 mm 4 mps 768 mmHg 63%
    05:00 +12°C° 0 mm 4 mps 768 mmHg 64%
    06:00 +12°C° 0 mm 4 mps 768 mmHg 65%
    07:00 +12°C° 0 mm 4 mps 768 mmHg 66%
    08:00 +13°C° 0 mm 4 mps 768 mmHg 63%
    09:00 +15°C° 0 mm 4 mps 768 mmHg 61%
    10:00 +18°C° 0 mm 4 mps 767 mmHg 58%
    11:00 +19°C° 0 mm 4 mps 767 mmHg 56%
    12:00 +20°C° 0 mm 4 mps 767 mmHg 55%
    13:00 +22°C° 0 mm 4 mps 766 mmHg 54%
    14:00 +22°C° 0 mm 4 mps 766 mmHg 54%
    15:00 +22°C° 0 mm 4 mps 766 mmHg 55%
    16:00 +22°C° 0 mm 4 mps 765 mmHg 55%
    17:00 +21°C° 0 mm 3 mps 765 mmHg 60%
    18:00 +19°C° 0 mm 3 mps 765 mmHg 65%
    19:00 +17°C° 0 mm 3 mps 765 mmHg 71%
    20:00 +17°C° 0 mm 3 mps 765 mmHg 71%
    21:00 +16°C° 0 mm 3 mps 764 mmHg 71%
    22:00 +16°C° 0 mm 3 mps 764 mmHg 71%
    23:00 +14°C° 0 mm 3 mps 764 mmHg 71%

    28 September, Friday

    Time Temperature Precipitation Wind Pressure Humidity
    00:00 +14°C° 0 mm 3 mps 763 mmHg 71%
    01:00 +14°C° 0 mm 3 mps 763 mmHg 72%
    02:00 +13°C° 0 mm 3 mps 763 mmHg 73%
    03:00 +13°C° 0 mm 3 mps 762 mmHg 74%
    04:00 +12°C° 0 mm 3 mps 762 mmHg 75%
    05:00 +12°C° 0 mm 3 mps 762 mmHg 76%
    06:00 +12°C° 0 mm 3 mps 762 mmHg 77%
    07:00 +13°C° 0 mm 2 mps 762 mmHg 79%
    08:00 +14°C° 0 mm 2 mps 762 mmHg 74%
    09:00 +16°C° 0 mm 3 mps 763 mmHg 69%
    10:00 +17°C° 0 mm 3 mps 763 mmHg 65%
    11:00 +18°C° 0 mm 3 mps 763 mmHg 63%
    12:00 +18°C° 0 mm 3 mps 763 mmHg 62%
    13:00 +18°C° 0 mm 3 mps 763 mmHg 61%
    14:00 +18°C° 0 mm 3 mps 763 mmHg 61%
    15:00 +17°C° 0 mm 3 mps 762 mmHg 61%
    16:00 +17°C° 0 mm 3 mps 762 mmHg 61%
    17:00 +16°C° 0 mm 2 mps 762 mmHg 61%
    18:00 +16°C° 0 mm 2 mps 763 mmHg 62%
    19:00 +15°C° 0 mm 2 mps 763 mmHg 62%
    20:00 +14°C° 0 mm 2 mps 763 mmHg 62%
    21:00 +14°C° 0 mm 2 mps 764 mmHg 63%
    22:00 +13°C° 0 mm 2 mps 764 mmHg 63%
    23:00 +12°C° 0 mm 2 mps 764 mmHg 66%

    29 September, Saturday

    Time Temperature Precipitation Wind Pressure Humidity
    00:00 +10°C° 0 mm 2 mps 764 mmHg 70%
    01:00 +9°C° 0 mm 2 mps 764 mmHg 73%
    02:00 +9°C° 0 mm 2 mps 765 mmHg 74%
    03:00 +8°C° 0 mm 2 mps 765 mmHg 74%
    04:00 +7°C° 0 mm 2 mps 765 mmHg 75%
    05:00 +7°C° 0 mm 2 mps 765 mmHg 74%
    06:00 +7°C° 0 mm 2 mps 766 mmHg 73%
    07:00 +7°C° 0 mm 2 mps 766 mmHg 72%
    08:00 +9°C° 0 mm 2 mps 767 mmHg 65%
    09:00 +12°C° 0 mm 2 mps 767 mmHg 58%
    10:00 +14°C° 0 mm 2 mps 767 mmHg 50%
    11:00 +15°C° 0 mm 1 mps 767 mmHg 46%
    12:00 +16°C° 0 mm 1 mps 767 mmHg 42%
    13:00 +18°C° 0 mm 1 mps 767 mmHg 37%
    14:00 +18°C° 0 mm 1 mps 767 mmHg 37%
    15:00 +16°C° 0 mm 1 mps 766 mmHg 37%
    16:00 +16°C° 0 mm 1 mps 766 mmHg 36%
    17:00 +15°C° 0 mm 1 mps 766 mmHg 41%
    18:00 +13°C° 0 mm 1 mps 767 mmHg 45%
    19:00 +12°C° 0 mm 1 mps 767 mmHg 49%
    20:00 +11°C° 0 mm 1 mps 767 mmHg 51%
    21:00 +11°C° 0 mm 1 mps 767 mmHg 52%
    22:00 +10°C° 0 mm 1 mps 767 mmHg 54%
    23:00 +10°C° 0 mm 1 mps 767 mmHg 56%
    Show more